Location: Hamilton Beach
(40.6523°N, 73.8274°W)
Time: 23:24:03
(UTC+00:00)

Daily predictions for brighter satellites

Satellite Brightness Start Highest point End
(mag) Time Altitude Azimuth Time Altitude Azimuth Time Altitude Azimuth
Cosmos 2369 3.7 22:56:53 10° SSW 23:02:28 69° ESE 23:08:08 10° NNE
FALCON 9 DEB 2.9 23:02:44 10° SW 23:05:54 90° WSW 23:09:05 10° NE
IRIS 4.0 23:03:33 10° WSW 23:06:47 66° SSE 23:09:12 10° E
SeaSat 1 2.7 23:02:25 10° NE 23:07:14 51° ESE 23:12:01 10° S
Feng Yun 1-1 Rocket 4.4 23:01:43 10° SSE 23:07:30 76° ENE 23:13:25 10° N
Cosmos 1743 Rocket 3.5 23:04:29 10° S 23:08:49 74° E 23:13:13 10° NNE
Cosmos 1805 Rocket 4.1 23:05:54 10° SSE 23:09:54 37° E 23:13:57 10° NNE
Cosmos 1862 3.5 23:09:13 10° S 23:13:13 78° W 23:17:16 10° N
USA 234 3.3 23:07:01 10° NE 23:13:34 72° SE 23:20:05 10° SW
H-2A R/B 3.7 23:10:01 10° N 23:13:46 35° WNW 23:17:29 10° SW
Cosmos 2263 Rocket 3.4 23:10:07 10° N 23:14:23 22° NE 23:18:37 10° ESE
Meteor 1-10 Rocket 4.2 23:08:58 10° N 23:14:44 73° E 23:20:20 10° SSE
Cosmos 1689 Rocket 2.9 23:13:14 10° NE 23:15:45 27° E 23:18:16 10° SSE
Cosmos 1271 Rocket 4.3 23:15:31 10° NNE 23:17:48 15° ENE 23:20:04 10° ESE
Abrixas rocket 3.9 23:18:39 10° SSE 23:19:28 11° SE 23:20:16 10° ESE
CZ-2D R/B 3.4 23:15:42 10° S 23:19:29 76° W 23:23:17 10° NNW
Cosmos 2228 Rocket 3.1 23:18:01 10° N 23:22:31 62° E 23:26:56 10° SSE
Cosmos 2227 Rocket 3.0 23:17:19 10° NNW 23:22:52 56° WSW 23:28:22 10° S
Cosmos 1812 3.0 23:20:02 10° NNW 23:23:51 71° W 23:27:39 10° S
Cosmos 1850 Rocket 3.9 23:19:36 10° NNW 23:24:48 77° ENE 23:30:00 10° SSE
Cosmos 2074 Rocket 4.5 23:19:13 10° SSE 23:24:53 37° E 23:30:34 10° NNE
BREEZE-M DEB (TANK) 3.2 23:23:20 10° WNW 23:25:10 23° NNW 23:27:33 10° NE
H-2A R/B 2.2 23:21:24 10° SSE 23:26:42 63° ENE 23:32:06 10° N
Cosmos 2084 3.7 23:25:41 10° SW 23:29:51 71° NW 23:34:09 10° NNE
ARGOS 3.4 23:25:06 10° SE 23:30:15 47° ENE 23:35:25 10° N
FALCON 9 DEB 3.4 23:27:28 10° WSW 23:30:36 58° NW 23:33:46 10° NE
Cosmos 1666 Rocket 4.3 23:28:06 10° SSE 23:31:53 29° E 23:35:40 10° NNE
Cosmos 1242 Rocket 3.3 23:28:41 10° NNW 23:32:10 57° W 23:35:40 10° S
Meteor 1-27 Rocket 3.6 23:28:55 10° N 23:34:25 65° E 23:39:53 10° SSE
Cosmos 2278 3.7 23:29:07 10° SSW 23:34:46 79° ESE 23:40:28 10° NNE
Cosmos 2184 Rocket 4.2 23:31:56 10° SSE 23:37:43 45° E 23:43:31 10° NNE
FALCON 9 DEB 4.1 23:35:48 10° WSW 23:38:48 40° NNW 23:41:40 11° NE
Aureole 1 Rocket 4.2 23:32:27 10° NNW 23:39:45 76° WSW 23:45:19 10° S
Cosmos 2297 Rocket 4.3 23:35:17 10° NW 23:40:10 31° WSW 23:45:02 10° SSW
COSMOS 2455 2.9 23:36:37 10° NNW 23:42:32 56° ENE 23:48:25 10° SE
Cosmos 292 Rocket 4.4 23:38:16 10° SSW 23:42:56 58° WNW 23:47:38 10° NNE
CSL-04 Debris 4.3 23:38:51 10° SSE 23:44:06 55° ENE 23:49:25 10° N
Helios 1A Rocket 3.0 23:40:25 10° SSE 23:44:23 51° ENE 23:48:20 10° N
CZ-2C R/B 2.8 23:39:11 10° NNE 23:44:33 50° E 23:49:47 10° S
CZ-2C R/B 4.3 23:39:07 10° S 23:44:45 51° W 23:50:19 10° NNW
Cosmos 1331 Rocket 4.0 23:39:28 10° SSW 23:44:45 87° ESE 23:50:03 10° NNE
YAOGAN 1 2.6 23:42:17 10° SSE 23:46:36 88° WSW 23:50:57 10° NNW
SL-4 R/B 3.5 23:44:16 10° W 23:47:16 24° NNW 23:50:03 11° NNE
Cosmos 220 Rocket 4.1 23:44:58 10° SSW 23:49:08 75° WNW 23:53:23 10° NNE
Okean-O 2.6 23:44:46 10° SSE 23:49:12 86° WSW 23:53:40 10° NNW
CZ-4B R/B 4.0 23:48:44 10° NNW 23:51:04 20° WNW 23:53:23 10° WSW
CSL-04 Rocket 3.7 23:45:46 10° SSE 23:51:12 59° ENE 23:56:39 10° N
Gbstr 26 Del rocket 3.3 23:48:35 10° WSW 23:52:52 73° NW 23:57:09 15° NE
Lacrosse 5 rocket 1.4 23:50:24 10° NW 23:54:49 88° SW 23:58:02 17° SE
Cosmos 1437 2.6 23:52:43 10° N 23:55:31 48° ENE 23:56:40 29° SE
